Weather History for Columbia, MO

Change the Weather History Date:

Monday, June 24, 2013

  Actual Average Record
Temperature  
Mean Temperature 78 °F 75 °F  
Max Temperature 89 °F 85 °F 103 °F (1988)
Min Temperature 67 °F 65 °F 50 °F (1974)
Degree Days  
Heating Degree Days 0 0  
Month to date heating degree days 6 9  
Since 1 June heating degree days 6 9  
Since 1 July heating degree days 4902 5021  
Cooling Degree Days 13 10  
Month to date cooling degree days 188 181  
Year to date cooling degree days 322 284  
Since 1 June cooling degree days 188 181  
Growing Degree Days 28 (Base 50)    
Moisture  
Dew Point 70 °F    
Average Humidity 76    
Maximum Humidity 93    
Minimum Humidity 59    
Precipitation  
Precipitation 0.00 in 0.15 in 3.27 in (1955)
Month to date precipitation 1.90 3.60  
Year to date precipitation 28.61 20.15  
Snow  
Snow 0.00 in 0.00 in 0.00 in (2013)
Month to date snowfall 0.0 0.0  
Since 1 June snowfall 0.0 0.0  
Since 1 July snowfall 35.0 18.0  
Snow Depth 0.00 in    
Sea Level Pressure  
Sea Level Pressure 29.96 in    
Wind  
Wind Speed 10 mph (South)    
Max Wind Speed 20 mph    
Max Gust Speed 25 mph    
Visibility 9 miles    
Events      
T = Trace of Precipitation, MM = Missing Value Source: NWS Daily Summary

Daily Weather History Graph

Daily Weather History Graph

Search for Another Location

Airport:

Trip Planner

Search our weather history database for the weather conditions in past years. The results will help you decide how hot, cold, wet, or windy it might be!

Date:

Astronomy

Jun. 24, 2013 Rise Set
Actual Time 5:44 AM CDT 8:37 PM CDT
Civil Twilight 5:12 AM CDT 9:09 PM CDT
Nautical Twilight 4:32 AM CDT 9:50 PM CDT
Astronomical Twilight 3:46 AM CDT 10:36 PM CDT
Moon 9:41 PM CDT (6/24) 7:11 AM CDT (6/24)
Length of Visible Light 15h 57m
Length of Day
14h 53m
Full, 98% of the Moon is Illuminated
Jun 24
Full
Jun 29
Last Quarter
Jul 8
New
Jul 15
First Quarter
Jul 22
Full

Hourly Weather History & Observations

Time (CDT) Temp. Heat Index Dew Point Humidity Pressure Visibility Wind Dir Wind Speed Gust Speed Precip Events Conditions
12:54 AM 70.0 °F - 66.0 °F 87% 29.98 in 10.0 mi ESE 8.1 mph - N/A   Clear
1:54 AM 68.0 °F - 66.0 °F 93% 29.98 in 10.0 mi SE 8.1 mph - N/A   Clear
2:54 AM 68.0 °F - 64.9 °F 90% 29.98 in 10.0 mi SE 6.9 mph - N/A   Clear
3:54 AM 68.0 °F - 64.9 °F 90% 29.98 in 10.0 mi SE 5.8 mph - N/A   Clear
4:54 AM 68.0 °F - 66.0 °F 93% 29.99 in 9.0 mi SSE 6.9 mph - N/A   Clear
5:54 AM 68.0 °F - 66.0 °F 93% 29.99 in 5.0 mi SSE 8.1 mph - N/A   Clear
6:54 AM 71.1 °F - 68.0 °F 90% 30.00 in 5.0 mi SSE 10.4 mph - N/A   Clear
7:54 AM 75.0 °F - 71.1 °F 87% 30.01 in 7.0 mi South 9.2 mph - N/A   Clear
8:54 AM 78.1 °F - 71.1 °F 79% 30.03 in 9.0 mi South 9.2 mph - N/A   Clear
9:54 AM 82.0 °F 86.7 °F 72.0 °F 71% 30.02 in 10.0 mi South 12.7 mph - N/A   Clear
10:54 AM 84.0 °F 89.6 °F 72.0 °F 67% 30.02 in 10.0 mi South 13.8 mph 20.7 mph N/A   Clear
11:54 AM 84.0 °F 90.2 °F 73.0 °F 69% 30.02 in 10.0 mi SSW 10.4 mph - N/A   Clear
12:54 PM 86.0 °F 93.0 °F 73.0 °F 65% 30.00 in 10.0 mi South 13.8 mph - N/A   Clear
1:54 PM 87.1 °F 93.6 °F 72.0 °F 61% 29.99 in 10.0 mi SSW 11.5 mph - N/A   Clear
2:54 PM 87.1 °F 92.8 °F 71.1 °F 59% 29.98 in 10.0 mi WSW 11.5 mph - N/A   Scattered Clouds
3:54 PM 86.0 °F 92.2 °F 72.0 °F 63% 29.95 in 10.0 mi South 8.1 mph - N/A   Partly Cloudy
4:54 PM 87.1 °F 93.6 °F 72.0 °F 61% 29.95 in 10.0 mi South 8.1 mph - N/A   Partly Cloudy
5:54 PM 88.0 °F 93.8 °F 71.1 °F 57% 29.92 in 10.0 mi South 10.4 mph - N/A   Clear
6:54 PM 86.0 °F 91.5 °F 71.1 °F 61% 29.91 in 10.0 mi SSE 8.1 mph - N/A   Clear
7:54 PM 82.0 °F 86.7 °F 72.0 °F 71% 29.90 in 10.0 mi SSE 9.2 mph - N/A   Clear
8:54 PM 82.0 °F 86.3 °F 71.1 °F 69% 29.88 in 10.0 mi SSE 11.5 mph - N/A   Clear
9:54 PM 81.0 °F 84.4 °F 70.0 °F 69% 29.87 in 10.0 mi SSE 16.1 mph - N/A   Clear
10:54 PM 81.0 °F 84.1 °F 69.1 °F 67% 29.88 in 10.0 mi South 12.7 mph 21.9 mph N/A   Clear
11:54 PM 80.1 °F 83.2 °F 70.0 °F 71% 29.92 in 10.0 mi South 10.4 mph - N/A   Clear